FW7918 Weather Reports


Display with metric or nautical units.
time (UTC)temp
F
wind
direction
speed
MPH
gust
MPH
rain 1hr
in
rain 24hr
in
rain mn
in
humidity
%
barometer
mb
20260504173104 78 101 0.0 0.0 0.00 0.00 0.00 99 1011.2
20260504172559 78 94 0.0 0.0 0.00 0.00 0.00 99 1011.2
20260504172056 78 107 0.0 0.0 0.00 0.00 0.00 99 1011.4
20260504171552 78 100 0.0 1.0 0.00 0.00 0.00 99 1011.6
20260504171050 77 81 1.0 1.0 0.00 0.00 0.00 99 1011.4
20260504170545 78 97 0.0 0.0 0.00 0.00 0.00 99 1011.6
20260504150930 78 106 0.0 0.0 0.00 0.02 0.02 99 1011.4
20260504150426 78 103 0.0 0.0 0.00 0.02 0.02 99 1011.5
20260504140853 79 54 1.0 2.0 0.00 0.02 0.02 99 1011.0
20260504140349 79 88 0.0 0.0 0.00 0.02 0.02 99 1010.9
20260504130817 79 106 0.0 0.0 0.00 0.02 0.02 97 1010.5
20260504130314 79 106 0.0 0.0 0.00 0.02 0.02 97 1010.7
20260504120237 79 64 0.0 1.0 0.00 0.02 0.02 97 1010.0
20260504110704 79 116 0.0 2.0 0.00 0.02 0.02 98 1008.9
20260504110201 79 114 0.0 2.0 0.00 0.02 0.02 98 1008.9
20260504100119 79 105 0.0 1.0 0.00 0.02 0.02 98 1007.9
20260504081512 82 274 5.0 7.0 0.00 0.00 0.00 89 1009.7
20260504081008 86 263 5.0 7.0 0.00 0.00 0.00 86 1009.5
20260504080504 86 182 3.0 5.0 0.00 0.00 0.00 90 1009.1
20260504050317 88 132 1.0 3.0 0.00 0.00 0.00 86 1011.5
20260504045814 87 129 1.0 1.0 0.00 0.00 0.00 87 1011.3
20260504045314 87 138 3.0 5.0 0.00 0.00 0.00 86 1011.7
20260504044812 88 164 2.0 3.0 0.00 0.00 0.00 87 1011.7
20260504044309 89 109 2.0 3.0 0.00 0.00 0.00 84 1011.9
20260504043806 90 133 3.0 7.0 0.00 0.00 0.00 84 1011.9
20260504043303 89 71 1.0 3.0 0.00 0.00 0.00 83 1011.9
20260504042755 91 81 2.0 3.0 0.00 0.00 0.00 82 1012.1
20260504042251 90 130 2.0 2.0 0.00 0.00 0.00 80 1012.1
20260504041748 91 119 2.0 2.0 0.00 0.00 0.00 80 1012.2
20260504041244 89 140 0.0 3.0 0.00 0.00 0.00 82 1012.3
20260504040740 88 112 2.0 2.0 0.00 0.00 0.00 83 1012.2
20260504040238 88 119 2.0 5.0 0.00 0.00 0.00 85 1012.2
20260504035733 88 139 3.0 5.0 0.00 0.00 0.00 86 1012.4
20260504035231 90 117 2.0 5.0 0.00 0.00 0.00 85 1012.6
20260504034729 90 96 1.0 3.0 0.00 0.00 0.00 78 1012.5
20260504034226 90 107 1.0 3.0 0.00 0.00 0.00 82 1012.4
20260504033723 89 96 2.0 2.0 0.00 0.00 0.00 81 1012.5
20260504033220 89 74 1.0 2.0 0.00 0.00 0.00 80 1012.6
20260504032717 89 109 1.0 1.0 0.00 0.00 0.00 81 1012.3
20260504032214 89 105 2.0 3.0 0.00 0.00 0.00 83 1012.4
20260504031711 88 56 3.0 5.0 0.00 0.00 0.00 83 1012.5
20260504031208 88 99 1.0 2.0 0.00 0.00 0.00 83 1012.5
20260504030704 88 118 1.0 1.0 0.00 0.00 0.00 86 1012.5
20260504030202 87 84 0.0 1.0 0.00 0.00 0.00 84 1012.5
20260504025658 86 97 2.0 2.0 0.00 0.00 0.00 85 1012.5
20260504025155 86 120 2.0 2.0 0.00 0.00 0.00 86 1012.5
20260504024652 87 103 0.0 2.0 0.00 0.00 0.00 84 1012.5
20260504024148 86 85 1.0 2.0 0.00 0.00 0.00 86 1012.4
20260504023645 86 103 1.0 1.0 0.00 0.00 0.00 85 1012.7
20260504023141 86 116 1.0 1.0 0.00 0.00 0.00 87 1012.7
20260504022637 86 105 1.0 2.0 0.00 0.00 0.00 87 1012.7
20260504022133 86 105 1.0 2.0 0.00 0.00 0.00 87 1012.6
20260504021632 86 118 1.0 1.0 0.00 0.00 0.00 87 1012.7
20260504021128 85 107 0.0 2.0 0.00 0.00 0.00 88 1012.8
20260504020625 85 117 1.0 2.0 0.00 0.00 0.00 92 1012.3
20260504020121 84 108 0.0 2.0 0.00 0.00 0.00 94 1012.9
20260504015617 84 92 0.0 1.0 0.00 0.00 0.00 92 1012.6
20260504015114 84 103 0.0 1.0 0.00 0.00 0.00 92 1012.7
20260504014610 84 100 0.0 1.0 0.00 0.00 0.00 93 1012.7
20260504014107 84 131 2.0 2.0 0.00 0.00 0.00 91 1012.6
20260504013605 82 90 0.0 0.0 0.00 0.00 0.00 96 1012.7
20260504013102 80 63 1.0 1.0 0.00 0.00 0.00 99 1012.4
20260504012559 79 61 1.0 2.0 0.00 0.00 0.00 99 1012.4
20260504012057 78 81 1.0 2.0 0.00 0.00 0.00 99 1012.4
20260504011553 78 91 0.0 2.0 0.00 0.00 0.00 99 1012.4
20260504011049 78 83 0.0 1.0 0.00 0.00 0.00 99 1012.1
20260504010545 78 96 0.0 1.0 0.00 0.00 0.00 99 1012.2
20260504010042 78 76 1.0 1.0 0.00 0.00 0.00 99 1011.8
20260504005538 77 98 1.0 1.0 0.00 0.00 0.00 99 1012.0
20260504005036 78 73 0.0 1.0 0.00 0.00 0.00 99 1011.7
20260504004533 77 81 1.0 1.0 0.00 0.00 0.00 99 1012.0
20260504004030 77 11 3.0 3.0 0.00 0.00 0.00 99 1011.9
20260504003526 77 25 1.0 2.0 0.00 0.00 0.00 99 1011.8
20260504003024 77 65 1.0 1.0 0.00 0.00 0.00 99 1012.1
20260504002520 77 103 2.0 2.0 0.00 0.00 0.00 99 1012.0
20260504002017 77 125 1.0 1.0 0.00 0.00 0.00 99 1011.6
20260504001515 77 90 0.0 0.0 0.00 0.00 0.00 99 1011.2
20260504001011 77 88 0.0 1.0 0.00 0.00 0.00 99 1011.1
20260504000508 76 76 1.0 1.0 0.00 0.00 0.00 99 1010.7
20260504000006 76 111 0.0 1.0 0.00 0.00 0.00 99 1011.0
20260503235504 76 54 1.0 1.0 0.00 0.00 0.00 99 1011.0
20260503235000 76 69 0.0 0.0 0.00 0.00 0.00 99 1011.3
20260503234458 76 95 0.0 0.0 0.00 0.00 0.00 99 1011.1
20260503233956 75 93 0.0 0.0 0.00 0.00 0.00 99 1011.1
20260503233452 75 100 0.0 0.0 0.00 0.00 0.00 99 1010.9
20260503232948 75 100 0.0 0.0 0.00 0.00 0.00 99 1011.0
20260503232445 75 101 0.0 0.0 0.00 0.00 0.00 99 1010.9
20260503231943 75 97 0.0 0.0 0.00 0.00 0.00 99 1010.5
20260503231440 75 96 0.0 0.0 0.00 0.00 0.00 99 1010.7
20260503230937 75 107 0.0 0.0 0.00 0.00 0.00 99 1010.9
20260503230433 75 106 0.0 0.0 0.00 0.00 0.00 99 1010.6
20260503225931 75 116 0.0 0.0 0.00 0.00 0.00 99 1010.7
20260503225428 75 90 0.0 0.0 0.00 0.00 0.00 99 1010.6
20260503224923 75 98 0.0 0.0 0.00 0.00 0.00 99 1010.6
20260503224421 75 98 0.0 0.0 0.00 0.00 0.00 99 1010.6
20260503223918 75 111 0.0 0.0 0.00 0.00 0.00 99 1010.3
20260503223416 75 111 0.0 0.0 0.00 0.00 0.00 99 1010.2
20260503222916 75 107 0.0 0.0 0.00 0.00 0.00 99 1010.2
20260503222415 75 75 0.0 0.0 0.00 0.00 0.00 99 1009.9
20260503221913 75 98 0.0 0.0 0.00 0.00 0.00 99 1010.0
20260503221411 75 100 0.0 0.0 0.00 0.00 0.00 99 1009.8
20260503220907 75 98 0.0 0.0 0.00 0.00 0.00 99 1009.9
20260503220404 75 94 0.0 0.0 0.00 0.00 0.00 99 1009.5
20260503215901 75 98 0.0 0.0 0.00 0.00 0.00 99 1009.5
20260503215358 75 109 0.0 0.0 0.00 0.00 0.00 99 1009.4
20260503214855 75 112 0.0 0.0 0.00 0.00 0.00 99 1009.7
20260503214353 75 94 0.0 0.0 0.00 0.00 0.00 99 1009.6
20260503213850 75 100 0.0 0.0 0.00 0.00 0.00 99 1009.7
20260503213348 75 98 0.0 0.0 0.00 0.00 0.00 99 1009.8
20260503212844 75 90 0.0 1.0 0.00 0.00 0.00 99 1009.7
20260503212342 75 89 0.0 0.0 0.00 0.00 0.00 99 1009.9
20260503211839 75 101 0.0 0.0 0.00 0.00 0.00 99 1009.7
20260503211336 75 101 0.0 0.0 0.00 0.00 0.00 99 1009.6
20260503210831 75 99 0.0 0.0 0.00 0.00 0.00 99 1009.6
20260503210329 75 97 0.0 0.0 0.00 0.00 0.00 99 1009.8
20260503205823 75 106 0.0 0.0 0.00 0.00 0.00 99 1009.6
20260503205320 75 106 0.0 0.0 0.00 0.00 0.00 99 1009.7
20260503204817 75 106 0.0 0.0 0.00 0.00 0.00 99 1009.5
20260503204315 75 96 0.0 0.0 0.00 0.00 0.00 99 1009.7
20260503203812 75 88 0.0 1.0 0.00 0.00 0.00 99 1009.5
20260503203309 75 96 0.0 0.0 0.00 0.00 0.00 99 1009.6
20260503202806 75 102 0.0 0.0 0.00 0.00 0.00 99 1009.8
20260503202304 76 102 0.0 0.0 0.00 0.00 0.00 99 1009.6
20260503201801 76 96 0.0 0.0 0.00 0.00 0.00 99 1009.7
20260503201258 76 91 0.0 0.0 0.00 0.00 0.00 99 1009.9
20260503200756 76 102 0.0 0.0 0.00 0.00 0.00 99 1009.7
20260503200251 76 102 0.0 0.0 0.00 0.00 0.00 99 1009.8
20260503195749 76 102 0.0 0.0 0.00 0.00 0.00 99 1009.7
20260503195245 76 131 0.0 0.0 0.00 0.00 0.00 99 1009.8
20260503194743 76 102 0.0 0.0 0.00 0.00 0.00 99 1010.0
20260503194233 76 104 0.0 0.0 0.00 0.00 0.00 99 1010.0
20260503193729 75 104 0.0 0.0 0.00 0.00 0.00 99 1009.8
20260503193225 75 104 0.0 0.0 0.00 0.00 0.00 99 1010.1
20260503192721 75 104 0.0 0.0 0.00 0.00 0.00 99 1010.1
20260503192217 76 104 0.0 0.0 0.00 0.00 0.00 99 1010.3
20260503191714 76 105 0.0 0.0 0.00 0.00 0.00 99 1010.1
20260503191211 76 107 0.0 0.0 0.00 0.00 0.00 99 1010.3
20260503190707 75 104 0.0 0.0 0.00 0.00 0.00 99 1010.3
20260503190204 76 104 0.0 0.0 0.00 0.00 0.00 99 1010.4
20260503185702 76 80 0.0 0.0 0.00 0.00 0.00 99 1010.4
20260503185156 76 95 0.0 0.0 0.00 0.00 0.00 99 1010.5
20260503184651 76 102 0.0 0.0 0.00 0.00 0.00 99 1010.4
20260503184148 76 93 0.0 1.0 0.00 0.00 0.00 99 1010.4
20260503183644 76 93 0.0 0.0 0.00 0.00 0.00 99 1010.4
20260503183142 76 96 0.0 0.0 0.00 0.00 0.00 99 1010.3
20260503182640 76 96 0.0 0.0 0.00 0.00 0.00 99 1010.6
20260503182139 76 89 0.0 0.0 0.00 0.00 0.00 99 1010.3
20260503181635 76 103 0.0 0.0 0.00 0.00 0.00 99 1010.5
20260503181132 75 103 0.0 0.0 0.00 0.00 0.00 99 1010.7
20260503180629 75 103 0.0 0.0 0.00 0.00 0.00 99 1010.7
20260503180127 76 103 0.0 0.0 0.00 0.00 0.00 99 1010.7
20260503175623 76 96 0.0 0.0 0.00 0.00 0.00 99 1010.7
20260503175120 76 96 0.0 0.0 0.00 0.00 0.00 99 1010.7
20260503174617 76 90 0.0 0.0 0.00 0.00 0.00 99 1010.8
20260503174114 76 92 0.0 0.0 0.00 0.00 0.00 99 1010.9
20260503173609 76 81 0.0 0.0 0.00 0.00 0.00 99 1010.9